Regional Weather Roundup
Issued by NWS

Home | Current Version | Previous Version | Graphics & Text | Print | Product List | Glossary On
Versions: 1 2 3 4 5 6 7 8 9 10 11 12 13 14 15 16 17 18 19 20 21 22 23 24 25 26 27 28 29 30 31 32 33 34 35 36 37 38 39 40 41 42 43 44 45 46 47 48 49 50
000
ASUS43 KBIS 090510
RWRND

NORTH DAKOTA REGIONAL WEATHER ROUNDUP
NATIONAL WEATHER SERVICE BISMARCK ND
1100 PM CST MON FEB 08 2016

NOTE: "FAIR" INDICATES FEW OR NO CLOUDS BELOW 12,000 FEET WITH NO
SIGNIFICANT WEATHER AND/OR OBSTRUCTIONS TO VISIBILITY.


NDZ001>003-009>011-017-090600-
NORTHWEST NORTH DAKOTA

CITY           SKY/WX    TMP DP  RH WIND       PRES   REMARKS
WILLISTON      CLOUDY    30  22  72 CALM      30.26R
MINOT          CLOUDY    25  13  60 NW6       30.27S WCI  18
MINOT AFB      CLOUDY    23  17  77 CALM      30.26F
$$

NDZ018>021-031>035-040>046-090600-
SOUTHWEST NORTH DAKOTA

CITY           SKY/WX    TMP DP  RH WIND       PRES   REMARKS
BISMARCK       MOCLDY    25  15  66 N9        30.28R WCI  15
DICKINSON      CLOUDY    28  17  63 NW5       30.22F
GARRISON         N/A     22  17  81 N9        30.26R WCI  12
HETTINGER ARPT CLOUDY    30  14  51 N6        30.25S
$$

NDZ004>008-012>016-024-026-027-054-090600-
NORTHEAST NORTH DAKOTA

CITY           SKY/WX    TMP DP  RH WIND       PRES   REMARKS
GRAND FORKS    CLEAR      7   0  73 NW13      30.26R WCI  -9
GRND FRKS AFB  CLEAR      6   0  75 N12       30.26S WCI  -9
DEVILS LAKE    CLOUDY     6   3  87 N6        30.25S WCI  -4
$$

NDZ022-023-025-028>030-036>039-047>053-090600-
SOUTHEAST NORTH DAKOTA

CITY           SKY/WX    TMP DP  RH WIND       PRES   REMARKS
FARGO          CLEAR      9   1  70 N20       30.23R WCI -10
JAMESTOWN      CLEAR     11   7  84 N10       30.23R WCI  -3
$$




USA.gov is the U.S. government's official web portal to all federal, state and local government web resources and services.